Вернуться в каталог

SL-12 R/B

AUX MOTOR

АктивенHEO
NORAD 37144·ROCKET BODY·🇷🇺 Russia

Запущен Sep 2, 2010 с Baikonur Cosmodrome

Loading…

Ближайшие Пролёты (ближайшие 24 часа)

TLE

СвежийSource: Space-Track

Эпоха: Sep 14, 2026, 10:10 UTC

1 37144U 10041H   26257.42382456 -.00000013  00000-0 -13827-4 0  9992
2 37144  64.9346  60.5251 5614104 304.7802  14.4319  4.24864274109112

Отслеживайте SL-12 R/B в реальном времени с AllMySat

Download on the App Store